Kalaeloa, HI

6:44 AM HST on April 29, 2017 (GMT -1000)
Kalaeloa (John Rodgers Field)

Weather History for PHJR - February, 2013

Change the Weather History Date:

Wednesday, February 13, 2013

  Actual Average (PHHI) Record (PHHI)
Temperature  
Mean Temperature 69 °F -  
Max Temperature 79 °F 74 °F 80 °F (2016)
Min Temperature 59 °F 61 °F 59 °F (1997)
Cooling Degree Days 4    
Growing Degree Days 19 (Base 50)    
Moisture  
Dew Point 56 °F    
Average Humidity 63    
Maximum Humidity 83    
Minimum Humidity 42    
Precipitation  
Precipitation 0.00 in - - ()
Sea Level Pressure  
Sea Level Pressure 30.13 in    
Wind  
Wind Speed 2 mph (ENE)    
Max Wind Speed 9 mph    
Max Gust Speed -    
Visibility 10 miles    
Events Rain    
Averages and records for this station are not official NWS values.
T = Trace of Precipitation, MM = Missing Value Source: NWS Daily Summary

Daily Weather History Graph

Daily Weather History Graph

Search for Another Location

Airport or City:

Trip Planner

Search our weather history database for the weather conditions in past years. The results will help you decide how hot, cold, wet, or windy it might be!

Date:

Astronomy

Feb. 13, 2013 Rise Set
Actual Time 7:03 AM HST 6:29 PM HST
Civil Twilight 6:40 AM HST 6:52 PM HST
Nautical Twilight 6:14 AM HST 7:18 PM HST
Astronomical Twilight 5:48 AM HST 7:44 PM HST
Moon 9:15 AM HST (2/13) 10:03 PM HST (2/13)
Length of Visible Light 12h 11m
Length of Day
11h 25m
Waxing Crescent, 15% of the Moon is Illuminated
Feb 13
Waxing Crescent
Feb 17
First Quarter
Feb 25
Full
Mar 4
Last Quarter
Mar 11
New

Hourly Weather History & Observations

Time (HST) Temp. Dew Point Humidity Pressure Visibility Wind Dir Wind Speed Gust Speed Precip Events Conditions
12:53 AM 60.1 °F 55.0 °F 83% 30.18 in 10.0 mi Calm Calm - N/A   Partly Cloudy
1:53 AM 64.9 °F 55.9 °F 73% 30.16 in 10.0 mi Variable 3.5 mph - N/A   Overcast
2:53 AM 63.0 °F 55.9 °F 78% 30.13 in 10.0 mi Calm Calm - N/A   Partly Cloudy
3:53 AM 66.9 °F 55.0 °F 66% 30.13 in 10.0 mi Calm Calm - N/A   Overcast
4:53 AM 64.0 °F 55.0 °F 73% 30.12 in 10.0 mi Calm Calm - N/A   Scattered Clouds
5:53 AM 62.1 °F 55.0 °F 78% 30.13 in 10.0 mi Calm Calm - N/A   Partly Cloudy
6:53 AM 59.0 °F 54.0 °F 83% 30.14 in 10.0 mi Calm Calm - N/A   Partly Cloudy
7:53 AM 66.0 °F 55.0 °F 68% 30.15 in 10.0 mi Calm Calm - N/A   Overcast
8:53 AM 72.0 °F 55.0 °F 55% 30.17 in 10.0 mi Variable 3.5 mph - N/A   Overcast
9:53 AM 69.1 °F 60.1 °F 73% 30.18 in 9.0 mi East 4.6 mph - 0.00 in Rain Light Rain
10:53 AM 75.9 °F 55.9 °F 50% 30.16 in 10.0 mi Variable 5.8 mph - 0.00 in   Mostly Cloudy
11:53 AM 73.9 °F 54.0 °F 50% 30.14 in 10.0 mi ENE 6.9 mph - N/A   Clear
12:53 PM 78.1 °F 55.0 °F 45% 30.11 in 10.0 mi Variable 5.8 mph - N/A   Partly Cloudy
1:53 PM 79.0 °F 54.0 °F 42% 30.08 in 10.0 mi ENE 9.2 mph - N/A   Clear
2:53 PM 75.0 °F 55.0 °F 50% 30.06 in 10.0 mi Variable 4.6 mph - N/A   Scattered Clouds
3:53 PM 77.0 °F 54.0 °F 45% 30.05 in 10.0 mi Variable 3.5 mph - N/A   Scattered Clouds
4:53 PM 73.9 °F 55.9 °F 53% 30.07 in 10.0 mi Variable 5.8 mph - N/A   Mostly Cloudy
5:53 PM 73.0 °F 55.9 °F 55% 30.08 in 10.0 mi Variable 5.8 mph - N/A   Mostly Cloudy
6:53 PM 70.0 °F 57.0 °F 63% 30.10 in 10.0 mi Variable 3.5 mph - N/A   Mostly Cloudy
7:53 PM 70.0 °F 57.0 °F 63% 30.13 in 10.0 mi Variable 3.5 mph - N/A   Mostly Cloudy
8:53 PM 68.0 °F 57.0 °F 68% 30.14 in 10.0 mi Variable 4.6 mph - N/A   Partly Cloudy
9:53 PM 69.1 °F 57.9 °F 68% 30.15 in 10.0 mi Variable 4.6 mph - N/A   Overcast
10:53 PM 68.0 °F 57.0 °F 68% 30.14 in 10.0 mi Calm Calm - N/A   Mostly Cloudy
11:53 PM 68.0 °F 57.0 °F 68% 30.14 in 10.0 mi Variable 3.5 mph - N/A   Mostly Cloudy